Stansted, United Kingdom

4:59 PM BST on March 30, 2017 (GMT +0100)
Stansted

Weather History for EGSS - December, 2012

Change the Weather History Date:

Saturday, December 15, 2012

  Actual Average Record
Temperature  
Mean Temperature 46 °F -  
Max Temperature 50 °F 42 °F 53 °F (1998)
Min Temperature 42 °F 33 °F 28 °F (2010)
Degree Days  
Heating Degree Days 19    
Moisture  
Dew Point 42 °F    
Average Humidity 89    
Maximum Humidity 100    
Minimum Humidity 81    
Precipitation  
Precipitation 0.00 in - - ()
Sea Level Pressure  
Sea Level Pressure 29.26 in    
Wind  
Wind Speed 13 mph ()    
Max Wind Speed 18 mph    
Max Gust Speed -    
Visibility 6.2 miles    
Events      
Averages and records for this station are not official NWS values.
T = Trace of Precipitation, MM = Missing Value Source: Averaged Metar Reports

Daily Weather History Graph

Daily Weather History Graph

Search for Another Location

Airport or City:

Trip Planner

Search our weather history database for the weather conditions in past years. The results will help you decide how hot, cold, wet, or windy it might be!

Date:

Astronomy

Dec. 15, 2012 Rise Set
Actual Time 8:00 AM GMT 3:48 PM GMT
Civil Twilight 7:19 AM GMT 4:28 PM GMT
Nautical Twilight 6:36 AM GMT 5:12 PM GMT
Astronomical Twilight 5:55 AM GMT 5:53 PM GMT
Moon 9:29 AM GMT (12/15) 6:49 PM GMT (12/15)
Length of Visible Light 9h 09m
Length of Day
7h 47m
Waxing Crescent, 7% of the Moon is Illuminated
Dec 15
Waxing Crescent
Dec 20
First Quarter
Dec 28
Full
Jan 5
Last Quarter
Jan 11
New

Hourly Weather History & Observations

Time (GMT) Temp. Windchill Dew Point Humidity Pressure Visibility Wind Dir Wind Speed Gust Speed Precip Events Conditions
12:20 AM 42.8 °F 35.4 °F 39.2 °F 87% 29.06 in - SW 15.0 mph - N/A   Clear
12:50 AM 42.8 °F 35.1 °F 41.0 °F 93% 29.06 in - SW 16.1 mph - N/A   Clear
1:20 AM 42.8 °F 35.1 °F 41.0 °F 93% 29.06 in - SW 16.1 mph - N/A   Clear
1:50 AM 42.8 °F 35.4 °F 41.0 °F 93% 29.09 in - SW 15.0 mph - N/A   Clear
2:20 AM 42.8 °F 35.4 °F 41.0 °F 93% 29.09 in - SW 15.0 mph - N/A   Clear
2:50 AM 42.8 °F 35.4 °F 41.0 °F 93% 29.12 in 6.2 mi SW 15.0 mph - N/A   Mostly Cloudy
3:20 AM 42.8 °F 35.4 °F 41.0 °F 93% 29.12 in 6.2 mi SW 15.0 mph - N/A   Scattered Clouds
3:50 AM 42.8 °F 35.8 °F 41.0 °F 93% 29.15 in 6.2 mi SW 13.8 mph - N/A   Partly Cloudy
4:20 AM 42.8 °F 36.6 °F 39.2 °F 87% 29.15 in - SW 11.5 mph - N/A   Clear
4:50 AM 42.8 °F 36.2 °F 41.0 °F 93% 29.15 in - SSW 12.7 mph - N/A   Clear
5:20 AM 42.8 °F 35.8 °F 41.0 °F 93% 29.15 in - SSW 13.8 mph - N/A   Clear
5:50 AM 44.6 °F 37.8 °F 41.0 °F 87% 29.18 in 6.2 mi SSW 15.0 mph - N/A   Partly Cloudy
6:20 AM 42.8 °F 36.2 °F 41.0 °F 93% 29.18 in 6.2 mi South 12.7 mph - N/A   Partly Cloudy
6:50 AM 44.6 °F 38.4 °F 41.0 °F 87% 29.18 in 6.2 mi SSW 12.7 mph - N/A   Mostly Cloudy
7:20 AM 44.6 °F 38.4 °F 42.8 °F 93% 29.21 in 6.2 mi SSW 12.7 mph - N/A   Mostly Cloudy
7:50 AM 44.6 °F 38.4 °F 41.0 °F 87% 29.21 in 6.2 mi SSW 12.7 mph - N/A   Scattered Clouds
8:20 AM 44.6 °F 37.4 °F 41.0 °F 87% 29.24 in 6.2 mi SSW 16.1 mph - N/A   Partly Cloudy
8:50 AM 44.6 °F 38.1 °F 41.0 °F 87% 29.24 in - SSW 13.8 mph - N/A   Clear
9:20 AM 44.6 °F 38.1 °F 41.0 °F 87% 29.27 in - SSW 13.8 mph - N/A   Clear
9:50 AM 46.4 °F 40.1 °F 42.8 °F 87% 29.27 in - SSW 15.0 mph - N/A   Clear
10:20 AM 46.4 °F 39.8 °F 42.8 °F 87% 29.27 in 6.2 mi SSW 16.1 mph - N/A   Partly Cloudy
10:50 AM 48.2 °F - 42.8 °F 82% 29.27 in - SSW 16.1 mph - N/A   Clear
11:20 AM 48.2 °F - 44.6 °F 87% 29.27 in 6.2 mi SSW 17.3 mph - N/A   Partly Cloudy
11:50 AM 50.0 °F - 44.6 °F 82% 29.30 in 6.2 mi SSW 17.3 mph - N/A   Scattered Clouds
12:20 PM 50.0 °F - 44.6 °F 82% 29.30 in 6.2 mi SW 17.3 mph - N/A   Scattered Clouds
12:50 PM 50.0 °F - 44.6 °F 82% 29.30 in 6.2 mi SW 18.4 mph - N/A   Scattered Clouds
1:20 PM 50.0 °F - 44.6 °F 82% 29.30 in 6.2 mi SSW 16.1 mph - N/A   Scattered Clouds
1:50 PM 50.0 °F - 44.6 °F 82% 29.30 in 6.2 mi SSW 18.4 mph - N/A   Scattered Clouds
2:20 PM 50.0 °F - 44.6 °F 82% 29.30 in 6.2 mi SSW 17.3 mph - N/A   Scattered Clouds
2:50 PM 50.0 °F - 44.6 °F 82% 29.30 in 6.2 mi SSW 17.3 mph - N/A   Mostly Cloudy
3:20 PM 46.4 °F 42.9 °F 41.0 °F 81% 29.33 in 6.2 mi SW 6.9 mph - N/A   Mostly Cloudy
3:50 PM 44.6 °F 41.4 °F 42.8 °F 93% 29.33 in 6.2 mi SW 5.8 mph - N/A   Mostly Cloudy
4:20 PM 46.4 °F 41.1 °F 42.8 °F 87% 29.33 in 6.2 mi SSW 11.5 mph - N/A   Mostly Cloudy
4:50 PM 46.4 °F 41.5 °F 42.8 °F 87% 29.33 in 6.2 mi South 10.4 mph - N/A   Mostly Cloudy
5:20 PM 46.4 °F 41.1 °F 42.8 °F 87% 29.33 in 6.2 mi South 11.5 mph - N/A   Mostly Cloudy
5:50 PM 44.6 °F 39.7 °F 42.8 °F 93% 29.36 in 6.2 mi South 9.2 mph - N/A   Mostly Cloudy
6:20 PM 44.6 °F 38.8 °F 42.8 °F 93% 29.36 in 6.2 mi South 11.5 mph - N/A   Mostly Cloudy
6:50 PM 44.6 °F 39.7 °F 42.8 °F 93% 29.36 in 6.2 mi South 9.2 mph - N/A   Mostly Cloudy
7:20 PM 44.6 °F 39.2 °F 42.8 °F 93% 29.36 in 6.2 mi SSW 10.4 mph - N/A   Mostly Cloudy
7:50 PM 44.6 °F 40.2 °F 42.8 °F 93% 29.36 in 6.2 mi SSW 8.1 mph - N/A   Mostly Cloudy
8:20 PM 44.6 °F 39.7 °F 41.0 °F 87% 29.36 in 6.2 mi SW 9.2 mph - N/A   Mostly Cloudy
8:50 PM 44.6 °F 39.7 °F 42.8 °F 93% 29.39 in 6.2 mi SSW 9.2 mph - N/A   Mostly Cloudy
9:20 PM 44.6 °F 39.2 °F 42.8 °F 93% 29.39 in 6.2 mi SW 10.4 mph - N/A   Scattered Clouds
9:50 PM 44.6 °F 39.2 °F 42.8 °F 93% 29.39 in 6.2 mi SW 10.4 mph - N/A   Mostly Cloudy
10:20 PM 42.8 °F 37.5 °F 42.8 °F 100% 29.39 in 6.2 mi SW 9.2 mph - N/A   Mostly Cloudy
10:50 PM 42.8 °F 38.0 °F 41.0 °F 93% 29.42 in 6.2 mi SW 8.1 mph - N/A   Scattered Clouds
11:20 PM 42.8 °F 37.0 °F 41.0 °F 93% 29.42 in 6.2 mi SW 10.4 mph - N/A   Mostly Cloudy
11:50 PM 42.8 °F 37.5 °F 41.0 °F 93% 29.42 in 6.2 mi SW 9.2 mph - N/A   Mostly Cloudy